| time (UTC) | temp C | wind direction | speed KPH | gust KPH | rain 1hr cm | rain 24hr cm | rain mn cm | humidity % | barometer mb |
| 20260504175404 | 21 | 221 | 16.1 | 29.0 | 0.00 | 0.00 | 0.00 | 34 | 1009.2 |
| 20260504174904 | 21 | 220 | 16.1 | 32.2 | 0.00 | 0.00 | 0.00 | 34 | 1009.2 |
| 20260504174404 | 21 | 256 | 9.7 | 32.2 | 0.00 | 0.00 | 0.00 | 35 | 1009.3 |
| 20260504173904 | 21 | 238 | 14.5 | 32.2 | 0.00 | 0.00 | 0.00 | 35 | 1009.3 |
| 20260504173404 | 21 | 217 | 14.5 | 32.2 | 0.00 | 0.00 | 0.00 | 36 | 1009.3 |
| 20260504172904 | 21 | 248 | 16.1 | 32.2 | 0.00 | 0.00 | 0.00 | 35 | 1009.3 |
| 20260504172404 | 21 | 267 | 11.3 | 19.3 | 0.00 | 0.00 | 0.00 | 39 | 1009.4 |
| 20260504171904 | 20 | 246 | 9.7 | 24.1 | 0.00 | 0.00 | 0.00 | 35 | 1009.5 |
| 20260504171405 | 20 | 217 | 9.7 | 25.7 | 0.00 | 0.00 | 0.00 | 36 | 1009.5 |
| 20260504170905 | 21 | 226 | 14.5 | 24.1 | 0.00 | 0.00 | 0.00 | 38 | 1009.5 |
| 20260504170404 | 20 | 211 | 19.3 | 37.0 | 0.00 | 0.00 | 0.00 | 35 | 1009.7 |
| 20260504160405 | 20 | 230 | 11.3 | 25.7 | 0.00 | 0.00 | 0.00 | 37 | 1010.5 |
| 20260504150904 | 18 | 202 | 11.3 | 19.3 | 0.00 | 0.00 | 0.00 | 38 | 1011.0 |
| 20260504140404 | 16 | 235 | 17.7 | 29.0 | 0.00 | 0.00 | 0.00 | 43 | 1011.4 |
| 20260504130405 | 13 | 210 | 9.7 | 16.1 | 0.00 | 0.00 | 0.00 | 48 | 1012.0 |
| 20260504110404 | 9 | 209 | 6.4 | 12.9 | 0.00 | 0.00 | 0.00 | 53 | 1012.2 |
| 20260504100404 | 8 | 188 | 1.6 | 4.8 | 0.00 | 0.00 | 0.00 | 57 | 1012.0 |
| 20260504081904 | 9 | 207 | 1.6 | 4.8 | 0.00 | 0.00 | 0.00 | 50 | 1011.7 |
| 20260504080904 | 9 | 231 | 1.6 | 8.0 | 0.00 | 0.00 | 0.00 | 49 | 1011.6 |
| 20260504080404 | 10 | 217 | 3.2 | 11.3 | 0.00 | 0.00 | 0.00 | 48 | 1011.7 |
| 20260504050405 | 10 | 231 | 9.7 | 16.1 | 0.00 | 0.00 | 0.00 | 47 | 1011.0 |
| 20260504045404 | 10 | 221 | 9.7 | 19.3 | 0.00 | 0.00 | 0.00 | 47 | 1011.0 |
| 20260504044904 | 10 | 223 | 11.3 | 20.9 | 0.00 | 0.00 | 0.00 | 47 | 1011.0 |
| 20260504044404 | 10 | 215 | 9.7 | 19.3 | 0.00 | 0.00 | 0.00 | 46 | 1011.0 |
| 20260504043405 | 10 | 218 | 8.0 | 19.3 | 0.00 | 0.00 | 0.00 | 46 | 1010.9 |
| 20260504042904 | 10 | 242 | 9.7 | 16.1 | 0.00 | 0.00 | 0.00 | 46 | 1010.8 |
| 20260504042404 | 10 | 230 | 9.7 | 19.3 | 0.00 | 0.00 | 0.00 | 46 | 1010.8 |
| 20260504041904 | 10 | 230 | 9.7 | 16.1 | 0.00 | 0.00 | 0.00 | 46 | 1010.6 |
| 20260504041404 | 10 | 226 | 9.7 | 16.1 | 0.00 | 0.00 | 0.00 | 46 | 1010.6 |
| 20260504040905 | 10 | 220 | 8.0 | 14.5 | 0.00 | 0.00 | 0.00 | 46 | 1010.6 |
| 20260504040405 | 10 | 221 | 8.0 | 16.1 | 0.00 | 0.00 | 0.00 | 46 | 1010.7 |
| 20260504035905 | 10 | 235 | 4.8 | 14.5 | 0.00 | 0.00 | 0.00 | 46 | 1010.7 |
| 20260504035406 | 10 | 219 | 8.0 | 14.5 | 0.00 | 0.00 | 0.00 | 46 | 1010.7 |
| 20260504034904 | 10 | 233 | 4.8 | 12.9 | 0.00 | 0.00 | 0.00 | 46 | 1010.7 |
| 20260504034404 | 10 | 231 | 6.4 | 12.9 | 0.00 | 0.00 | 0.00 | 45 | 1010.6 |
| 20260504033404 | 10 | 234 | 4.8 | 11.3 | 0.00 | 0.00 | 0.00 | 45 | 1010.7 |
| 20260504032905 | 10 | 228 | 3.2 | 11.3 | 0.00 | 0.00 | 0.00 | 45 | 1010.7 |
| 20260504031905 | 10 | 221 | 3.2 | 9.7 | 0.00 | 0.00 | 0.00 | 44 | 1010.6 |
| 20260504031405 | 10 | 232 | 1.6 | 12.9 | 0.00 | 0.00 | 0.00 | 44 | 1010.6 |
| 20260504030406 | 10 | 232 | 3.2 | 9.7 | 0.00 | 0.00 | 0.00 | 44 | 1010.6 |
| 20260504025905 | 10 | 216 | 6.4 | 12.9 | 0.00 | 0.00 | 0.00 | 44 | 1010.6 |
| 20260504025405 | 10 | 214 | 6.4 | 14.5 | 0.00 | 0.00 | 0.00 | 45 | 1010.6 |
| 20260504024905 | 10 | 224 | 0.0 | 8.0 | 0.00 | 0.00 | 0.00 | 45 | 1010.6 |
| 20260504024404 | 10 | 232 | 0.0 | 1.6 | 0.00 | 0.00 | 0.00 | 43 | 1010.6 |
| 20260504023906 | 10 | 227 | 0.0 | 1.6 | 0.00 | 0.00 | 0.00 | 43 | 1010.6 |
| 20260504023403 | 11 | 221 | 1.6 | 4.8 | 0.00 | 0.00 | 0.00 | 42 | 1010.6 |
| 20260504022904 | 11 | 227 | 1.6 | 11.3 | 0.00 | 0.00 | 0.00 | 41 | 1010.6 |
| 20260504022404 | 11 | 222 | 0.0 | 9.7 | 0.00 | 0.00 | 0.00 | 41 | 1010.7 |
| 20260504021404 | 11 | 230 | 1.6 | 8.0 | 0.00 | 0.00 | 0.00 | 40 | 1010.7 |
| 20260504020904 | 11 | 233 | 1.6 | 9.7 | 0.00 | 0.00 | 0.00 | 40 | 1010.7 |
| 20260504020404 | 11 | 223 | 0.0 | 1.6 | 0.00 | 0.00 | 0.00 | 40 | 1010.7 |
| 20260504015903 | 11 | 212 | 0.0 | 0.0 | 0.00 | 0.00 | 0.00 | 40 | 1010.6 |
| 20260504014904 | 11 | 223 | 0.0 | 1.6 | 0.00 | 0.00 | 0.00 | 40 | 1010.6 |
| 20260504013904 | 11 | 210 | 0.0 | 0.0 | 0.00 | 0.00 | 0.00 | 39 | 1010.5 |
| 20260504012905 | 11 | 225 | 0.0 | 0.0 | 0.00 | 0.00 | 0.00 | 40 | 1010.4 |
| 20260504012404 | 11 | 238 | 0.0 | 0.0 | 0.00 | 0.00 | 0.00 | 41 | 1010.4 |
| 20260504011404 | 11 | 238 | 0.0 | 0.0 | 0.00 | 0.00 | 0.00 | 41 | 1010.3 |
| 20260504010904 | 11 | 238 | 0.0 | 0.0 | 0.00 | 0.00 | 0.00 | 40 | 1010.2 |
| 20260504010403 | 11 | 263 | 0.0 | 0.0 | 0.00 | 0.00 | 0.00 | 41 | 1010.2 |
| 20260504005904 | 11 | 268 | 0.0 | 0.0 | 0.00 | 0.00 | 0.00 | 42 | 1010.0 |
| 20260504004905 | 11 | 268 | 0.0 | 0.0 | 0.00 | 0.00 | 0.00 | 39 | 1010.0 |
| 20260504004404 | 12 | 268 | 0.0 | 0.0 | 0.00 | 0.00 | 0.00 | 38 | 1009.9 |
| 20260504003904 | 12 | 268 | 0.0 | 0.0 | 0.00 | 0.00 | 0.00 | 37 | 1009.8 |
| 20260504003405 | 12 | 268 | 0.0 | 0.0 | 0.00 | 0.00 | 0.00 | 36 | 1009.8 |
| 20260504002904 | 12 | 267 | 0.0 | 9.7 | 0.00 | 0.00 | 0.00 | 35 | 1009.8 |
| 20260504002405 | 12 | 270 | 0.0 | 4.8 | 0.00 | 0.00 | 0.00 | 35 | 1009.6 |
| 20260504001904 | 13 | 279 | 1.6 | 11.3 | 0.00 | 0.00 | 0.00 | 34 | 1009.5 |
| 20260504000406 | 13 | 282 | 1.6 | 11.3 | 0.00 | 0.00 | 0.00 | 32 | 1009.2 |
| 20260503235904 | 13 | 287 | 6.4 | 14.5 | 0.00 | 0.00 | 0.00 | 32 | 1009.2 |
| 20260503235405 | 13 | 252 | 4.8 | 16.1 | 0.00 | 0.00 | 0.00 | 31 | 1009.2 |
| 20260503234904 | 13 | 249 | 0.0 | 12.9 | 0.00 | 0.00 | 0.00 | 33 | 1009.1 |
| 20260503234405 | 13 | 260 | 3.2 | 16.1 | 0.00 | 0.00 | 0.00 | 31 | 1009.0 |
| 20260503233905 | 13 | 247 | 4.8 | 25.7 | 0.00 | 0.00 | 0.00 | 30 | 1009.0 |
| 20260503233404 | 14 | 246 | 8.0 | 22.5 | 0.00 | 0.00 | 0.00 | 30 | 1008.8 |
| 20260503232904 | 14 | 294 | 6.4 | 20.9 | 0.00 | 0.00 | 0.00 | 30 | 1008.8 |
| 20260503232405 | 14 | 285 | 8.0 | 20.9 | 0.00 | 0.00 | 0.00 | 31 | 1008.8 |
| 20260503231905 | 14 | 286 | 1.6 | 22.5 | 0.00 | 0.00 | 0.00 | 30 | 1008.8 |
| 20260503231404 | 13 | 281 | 11.3 | 20.9 | 0.00 | 0.00 | 0.00 | 31 | 1008.8 |
| 20260503230904 | 14 | 302 | 4.8 | 20.9 | 0.00 | 0.00 | 0.00 | 29 | 1008.7 |
| 20260503230405 | 14 | 272 | 4.8 | 20.9 | 0.00 | 0.00 | 0.00 | 29 | 1008.7 |
| 20260503225906 | 14 | 290 | 8.0 | 25.7 | 0.00 | 0.00 | 0.00 | 30 | 1008.7 |
| 20260503225405 | 14 | 281 | 6.4 | 20.9 | 0.00 | 0.00 | 0.00 | 29 | 1008.6 |
| 20260503224904 | 14 | 293 | 4.8 | 19.3 | 0.00 | 0.00 | 0.00 | 29 | 1008.5 |
| 20260503224405 | 14 | 319 | 4.8 | 22.5 | 0.00 | 0.00 | 0.00 | 28 | 1008.5 |
| 20260503223405 | 15 | 308 | 11.3 | 37.0 | 0.00 | 0.00 | 0.00 | 29 | 1008.6 |
| 20260503222405 | 15 | 291 | 6.4 | 25.7 | 0.00 | 0.00 | 0.00 | 28 | 1008.6 |
| 20260503221905 | 15 | 305 | 12.9 | 22.5 | 0.00 | 0.00 | 0.00 | 28 | 1008.6 |
| 20260503221404 | 15 | 294 | 1.6 | 22.5 | 0.00 | 0.00 | 0.00 | 30 | 1008.6 |
| 20260503220905 | 15 | 305 | 11.3 | 32.2 | 0.00 | 0.00 | 0.00 | 28 | 1008.5 |
| 20260503220404 | 15 | 280 | 3.2 | 22.5 | 0.00 | 0.00 | 0.00 | 29 | 1008.5 |
| 20260503215906 | 15 | 327 | 8.0 | 32.2 | 0.00 | 0.00 | 0.00 | 28 | 1008.7 |
| 20260503215404 | 15 | 334 | 8.0 | 19.3 | 0.00 | 0.00 | 0.00 | 28 | 1008.8 |
| 20260503214905 | 15 | 291 | 9.7 | 29.0 | 0.00 | 0.00 | 0.00 | 27 | 1008.8 |
| 20260503214404 | 15 | 287 | 8.0 | 32.2 | 0.00 | 0.00 | 0.00 | 28 | 1008.7 |
| 20260503213904 | 15 | 273 | 14.5 | 25.7 | 0.00 | 0.00 | 0.00 | 28 | 1008.7 |
| 20260503213405 | 15 | 278 | 12.9 | 27.4 | 0.00 | 0.00 | 0.00 | 28 | 1008.6 |
| 20260503212905 | 15 | 283 | 9.7 | 32.2 | 0.00 | 0.00 | 0.00 | 28 | 1008.6 |
| 20260503212404 | 15 | 297 | 9.7 | 25.7 | 0.00 | 0.00 | 0.00 | 29 | 1008.5 |
| 20260503211906 | 15 | 310 | 6.4 | 29.0 | 0.00 | 0.00 | 0.00 | 31 | 1008.5 |
| 20260503211404 | 15 | 267 | 12.9 | 33.8 | 0.00 | 0.00 | 0.00 | 27 | 1008.5 |
| 20260503210404 | 15 | 257 | 14.5 | 37.0 | 0.00 | 0.00 | 0.00 | 28 | 1008.4 |
| 20260503205905 | 15 | 285 | 17.7 | 37.0 | 0.00 | 0.00 | 0.00 | 29 | 1008.4 |
| 20260503204905 | 15 | 280 | 14.5 | 32.2 | 0.00 | 0.00 | 0.00 | 28 | 1008.4 |
| 20260503204405 | 15 | 275 | 9.7 | 32.2 | 0.00 | 0.00 | 0.00 | 30 | 1008.5 |
| 20260503203905 | 15 | 288 | 9.7 | 29.0 | 0.00 | 0.00 | 0.00 | 29 | 1008.4 |
| 20260503202904 | 15 | 314 | 9.7 | 25.7 | 0.00 | 0.00 | 0.00 | 32 | 1008.6 |
| 20260503202403 | 14 | 272 | 16.1 | 25.7 | 0.00 | 0.00 | 0.00 | 29 | 1008.6 |
| 20260503201904 | 14 | 327 | 16.1 | 40.2 | 0.00 | 0.00 | 0.00 | 30 | 1008.6 |
| 20260503201404 | 15 | 302 | 17.7 | 38.6 | 0.00 | 0.00 | 0.00 | 30 | 1008.6 |
| 20260503200904 | 15 | 297 | 14.5 | 40.2 | 0.00 | 0.00 | 0.00 | 28 | 1008.6 |
| 20260503195904 | 15 | 281 | 11.3 | 29.0 | 0.00 | 0.00 | 0.00 | 29 | 1008.8 |
| 20260503194903 | 14 | 294 | 11.3 | 33.8 | 0.00 | 0.00 | 0.00 | 32 | 1008.9 |
| 20260503194404 | 14 | 285 | 12.9 | 27.4 | 0.00 | 0.00 | 0.00 | 32 | 1008.8 |
| 20260503193904 | 13 | 297 | 19.3 | 33.8 | 0.00 | 0.00 | 0.00 | 33 | 1008.9 |
| 20260503192404 | 14 | 317 | 14.5 | 32.2 | 0.00 | 0.00 | 0.00 | 34 | 1009.2 |
| 20260503191904 | 13 | 290 | 14.5 | 29.0 | 0.00 | 0.00 | 0.00 | 33 | 1009.1 |
| 20260503191404 | 13 | 270 | 16.1 | 33.8 | 0.00 | 0.00 | 0.00 | 31 | 1009.1 |
| 20260503190904 | 14 | 290 | 8.0 | 25.7 | 0.00 | 0.00 | 0.00 | 38 | 1009.2 |
| 20260503190404 | 13 | 304 | 14.5 | 32.2 | 0.00 | 0.00 | 0.00 | 35 | 1009.2 |
| 20260503185404 | 15 | 272 | 9.7 | 32.2 | 0.00 | 0.00 | 0.00 | 35 | 1009.1 |
| 20260503184905 | 13 | 321 | 8.0 | 27.4 | 0.00 | 0.00 | 0.00 | 37 | 1009.3 |
| 20260503184404 | 13 | 301 | 14.5 | 32.2 | 0.00 | 0.00 | 0.00 | 34 | 1009.2 |
| 20260503183904 | 13 | 338 | 12.9 | 32.2 | 0.00 | 0.00 | 0.00 | 37 | 1009.3 |
| 20260503182904 | 14 | 279 | 16.1 | 32.2 | 0.00 | 0.00 | 0.00 | 35 | 1009.3 |
| 20260503182405 | 13 | 279 | 9.7 | 40.2 | 0.00 | 0.00 | 0.00 | 38 | 1009.3 |
| 20260503181904 | 13 | 308 | 11.3 | 25.7 | 0.00 | 0.00 | 0.00 | 36 | 1009.4 |
| 20260503181405 | 13 | 306 | 14.5 | 29.0 | 0.00 | 0.00 | 0.00 | 41 | 1009.5 |
| 20260503180904 | 12 | 306 | 11.3 | 22.5 | 0.00 | 0.00 | 0.00 | 40 | 1009.5 |
| 20260503180404 | 13 | 315 | 9.7 | 25.7 | 0.00 | 0.00 | 0.00 | 37 | 1009.7 |